This is the latest recevied weather packets stored in our database for station/object n3uvr. If no packets are shown the sender has not sent any weather packets the latest 1 day(s).
| Time | Temp. | Humidity | Pressure | Rain* | Wind** | Luminosity | Snow |
|---|---|---|---|---|---|---|---|
| 1778089433 | 15.56° C | 83% | 1005.7 hPa | 1.27 mm | - | 23 W/m² | - |
| 1778085217 | 15.56° C | 84% | 1005.8 hPa | 2.29 mm | - | 40 W/m² | - |
| 1778081591 | 15.56° C | 85% | 1005.9 hPa | 1.02 mm | - | 42 W/m² | - |
| 1778081017 | 15.56° C | 85% | 1005.8 hPa | 1.52 mm | - | 51 W/m² | - |
| 1778080412 | 15.56° C | 85% | 1005.9 hPa | 1.52 mm | - | 40 W/m² | - |
| 1778076772 | 16.11° C | 85% | 1006.7 hPa | 1.02 mm | - | 19 W/m² | - |
| 1778076168 | 16.11° C | 85% | 1006.6 hPa | 0.76 mm | - | 26 W/m² | - |
| 1778074392 | 16.67° C | 81% | 1006.9 hPa | 0 mm | - | 25 W/m² | - |
| 1778073762 | 17.22° C | 79% | 1006.8 hPa | 0 mm | - | 28 W/m² | - |
| 1778072549 | 17.78° C | 75% | 1006.2 hPa | 0 mm | - | 26 W/m² | - |
| 1778069583 | 17.22° C | 69% | 1006.3 hPa | 0 mm | - | 14 W/m² | - |
| 1778068372 | 17.22° C | 68% | 1006.2 hPa | 0 mm | - | 11 W/m² | - |
| 1778066557 | 17.22° C | 66% | 1006 hPa | 0 mm | - | 7 W/m² | - |
| 1778065965 | 16.67° C | 66% | 1005.8 hPa | 0 mm | - | 11 W/m² | - |
| 1778062397 | 16.67° C | 64% | 1005.9 hPa | 0 mm | - | 0 W/m² | - |
| 1778061806 | 16.11° C | 64% | 1005.7 hPa | 0 mm | - | 0 W/m² | - |
| 1778061192 | 16.11° C | 65% | 1005.7 hPa | 0 mm | - | 0 W/m² | - |
| 1778058749 | 16.11° C | 67% | 1006.3 hPa | 0 mm | - | 0 W/m² | - |
| 1778058126 | 16.11° C | 67% | 1006.2 hPa | 0 mm | - | 0 W/m² | - |
| 1778055146 | 16.67° C | 66% | 1006.1 hPa | 0 mm | - | 0 W/m² | - |
| 1778053995 | 16.67° C | 65% | 1006.4 hPa | 0 mm | - | 0 W/m² | - |
| 1778053394 | 16.67° C | 65% | 1006.3 hPa | 0 mm | - | 0 W/m² | - |
| 1778052772 | 16.11° C | 64% | 1006.3 hPa | 0 mm | - | 0 W/m² | - |
| 1778052139 | 16.11° C | 65% | 1006.4 hPa | 0 mm | - | 0 W/m² | - |
| 1778051525 | 16.11° C | 67% | 1006.5 hPa | 0 mm | - | 0 W/m² | - |
* Rain latest hour (hover to see other rain measurements)
** Current wind speed in m/s (hover to see current wind gust speed)